Location: Cactus School
(34.5700°N, 118.0931°W)
Time: 02:05:56
(UTC-08:00)

Vanguard 2 Rocket - Visible Passes

Search period start: 18 January 2018 00:00
Search period end: 28 January 2018 00:00
Orbit: 556 x 3326 km, 32.9° (Epoch: 17 January)

Date Brightness Start Highest point End Pass type
(mag) Time Alt. Az. Time Alt. Az. Time Alt. Az.
18 Jan 10.4 05:20:39 10° SSW 05:30:00 20° SSE 05:36:44 10° ESE visible
19 Jan 10.7 04:21:29 10° S 04:29:26 16° SSE 04:35:46 10° ESE visible
19 Jan 9.5 06:33:14 10° SW 06:44:59 37° SSE 06:52:06 10° E visible
20 Jan 11.0 03:24:56 10° SSE 03:28:37 11° SSE 03:31:59 10° SE visible
20 Jan 9.9 05:32:17 10° SSW 05:44:43 31° SSE 05:52:44 10° E visible
21 Jan 10.3 04:31:48 10° SSW 04:44:10 26° SSE 04:52:49 10° E visible
22 Jan 10.6 03:32:09 10° S 03:43:21 20° SSE 03:51:59 10° ESE visible
22 Jan 9.5 05:45:00 10° SW 05:59:23 44° SSE 06:07:58 10° E visible
23 Jan 10.9 02:34:09 10° S 02:42:18 14° SE 02:49:23 10° ESE visible
23 Jan 9.8 04:43:46 10° SSW 04:58:47 37° SSE 05:08:30 10° E visible
24 Jan 10.2 03:43:05 10° SSW 03:57:54 30° SSE 04:08:26 10° E visible
24 Jan 9.1 05:58:26 10° SW 06:13:58 58° SSE 06:22:53 10° E visible
25 Jan 10.5 02:44:06 11° S 02:56:49 24° SE 03:07:30 10° E visible
25 Jan 9.5 04:56:38 10° SW 05:13:19 50° SSE 05:23:35 10° E visible
26 Jan 10.8 01:50:26 15° SSE 01:55:39 17° SE 02:05:00 10° ESE visible
26 Jan 9.8 03:56:26 12° SSW 04:12:21 42° SSE 04:23:54 10° E visible
26 Jan 8.9 06:12:22 10° WSW 06:28:31 70° SSE 06:37:36 10° E visible
27 Jan 11.0 00:56:06 10° SE 00:56:06 10° SE 00:57:39 10° SE visible
27 Jan 10.1 03:02:03 24° S 03:11:11 34° SSE 03:23:36 10° E visible
27 Jan 9.2 05:10:08 10° SW 05:27:49 62° SSE 05:38:25 10° E visible
